Date String (YYYY-MM-DD hh:mm:ss) UTC,Instrument flags,Ambient pressure (hPa),Sample flow (lpm),Bypass flow (lpm),Sample temperature (°C),Ambient temperature (°C),ASC tube jacket temperature (°C),LED temperature (°C),Box temperature (°C),Sample RH (%),Span deviation,Mass concentration (μg/m³),Mass concentration (μg/m³),Mass concentration (μg/m³)
DateTimeUTC,F1_M11,P_M11,Q1_M11,Q2_M11,T1_M11,T2_M11,T3_M11,T4_M11,T5_M11,U1_M11,ZSPAN_M11,X2_M11,X0_M11,X1_M11
2023-05-18 19:00:00,,0831.0,5.01,0.00,29.2,27.7,00.0,37.6,30.8,32.7,0001.4,0009.39,0013.80,0008.51
2023-05-18 19:01:00,,0831.0,4.98,0.00,29.2,27.7,00.0,37.6,30.8,31.9,0001.2,0009.25,0013.65,0008.38
2023-05-18 19:02:00,,0830.9,5.01,0.00,29.2,27.7,00.0,37.6,30.8,31.8,0000.9,0009.07,0013.45,0008.22
2023-05-18 19:03:00,,0830.9,5.01,0.00,29.2,27.7,00.0,37.6,30.8,33.4,0000.6,0008.94,0013.08,0008.08
2023-05-18 19:04:00,,0830.9,4.99,0.00,29.2,27.7,00.0,37.6,30.8,32.7,0001.0,0008.83,0012.94,0007.93
2023-05-18 19:05:00,,0830.9,5.00,0.00,29.2,27.7,00.0,37.6,30.8,32.3,0001.2,0008.66,0012.76,0007.77
2023-05-18 19:06:00,,0830.9,5.01,0.00,29.2,27.7,00.0,37.6,30.9,33.8,0001.0,0008.48,0012.35,0007.60
2023-05-18 19:07:00,,0830.9,4.99,0.00,29.2,27.7,00.0,37.6,30.8,31.2,0001.2,0008.21,0012.17,0007.35
2023-05-18 19:08:00,,0830.9,4.99,0.00,29.2,27.7,00.0,37.6,30.8,29.2,0001.6,0007.88,0011.86,0007.03
2023-05-18 19:09:00,,0830.9,5.00,0.00,29.2,27.7,00.0,37.6,30.8,30.6,0001.5,0007.53,0011.48,0006.71
2023-05-18 19:10:00,,0830.8,5.00,0.00,29.2,27.7,00.0,37.6,30.8,29.9,0001.2,0007.27,0011.45,0006.47
2023-05-18 19:11:00,,0830.9,5.00,0.00,29.2,27.7,00.0,37.6,30.8,30.8,0001.0,0007.09,0011.26,0006.26
2023-05-18 19:12:00,,0830.8,5.00,0.00,29.2,27.7,00.0,37.7,30.8,30.1,0001.6,0006.92,0011.13,0006.06
2023-05-18 19:13:00,,0830.7,5.00,0.00,29.2,27.7,00.0,37.7,30.8,30.2,0002.4,0006.78,0011.21,0005.93
2023-05-18 19:14:00,,0830.7,5.01,0.00,29.2,27.7,00.0,37.7,30.8,29.9,0003.0,0006.64,0011.18,0005.82
2023-05-18 19:15:00,,0830.7,5.01,0.00,29.2,27.7,00.0,37.7,30.9,31.2,0002.4,0006.51,0011.12,0005.67
2023-05-18 19:16:00,,0830.6,4.99,0.00,29.3,27.7,00.0,37.7,30.9,31.4,0002.5,0006.52,0011.63,0005.66
2023-05-18 19:17:00,,0830.6,5.00,0.00,29.3,27.7,00.0,37.7,30.9,32.0,0002.4,0006.55,0011.69,0005.66
2023-05-18 19:18:00,,0830.6,5.00,0.00,29.3,27.8,00.0,37.7,30.9,32.1,0001.8,0006.67,0011.83,0005.74
2023-05-18 19:19:00,,0830.5,5.01,0.00,29.3,27.8,00.0,37.7,30.9,32.1,0001.4,0006.88,0012.17,0005.94
2023-05-18 19:20:00,,0830.8,5.00,0.00,29.3,27.8,00.0,37.7,30.9,32.1,0000.8,0007.12,0012.64,0006.15
2023-05-18 19:21:00,,0830.4,4.98,0.00,29.3,27.8,00.0,37.7,30.9,32.5,0000.5,0007.33,0012.82,0006.32
2023-05-18 19:22:00,,0830.4,5.00,0.00,29.3,27.8,00.0,37.7,30.9,32.4,0000.1,0007.45,0012.86,0006.48
2023-05-18 19:23:00,,0830.5,5.01,0.00,29.3,27.8,00.0,37.7,30.9,32.3,-000.1,0007.63,0012.97,0006.68
2023-05-18 19:24:00,,0830.4,5.01,0.00,29.3,27.8,00.0,37.7,30.9,33.5,-000.7,0007.86,0012.94,0006.89
2023-05-18 19:25:00,,0830.4,4.99,0.00,29.3,27.8,00.0,37.7,30.9,34.6,-000.9,0008.07,0012.98,0007.08
2023-05-18 19:26:00,,0830.5,4.99,0.00,29.3,27.8,00.0,37.7,30.9,33.4,-000.6,0008.27,0013.07,0007.32
2023-05-18 19:27:00,,0830.4,5.01,0.00,29.3,27.8,00.0,37.7,30.9,32.6,-000.7,0008.38,0012.70,0007.45
2023-05-18 19:28:00,,0830.3,4.99,0.00,29.3,27.8,00.0,37.7,30.9,33.5,-000.5,0008.53,0012.88,0007.58
2023-05-18 19:29:00,,0830.3,5.00,0.00,29.3,27.8,00.0,37.7,30.9,34.2,-000.4,0008.66,0012.96,0007.72
2023-05-18 19:30:00,,0830.3,4.99,0.00,29.3,27.8,00.0,37.7,30.9,34.4,-000.4,0008.77,0012.94,0007.85
2023-05-18 19:31:00,,0830.3,4.98,0.00,29.3,27.8,00.0,37.7,30.9,33.8,-000.7,0008.90,0012.88,0007.97
2023-05-18 19:32:00,,0830.3,5.00,0.00,29.3,27.8,00.0,37.7,30.9,33.3,-000.5,0009.01,0012.77,0008.12
2023-05-18 19:33:00,,0830.2,5.01,0.00,29.4,27.8,00.0,37.8,31.0,32.8,-000.2,0009.17,0013.47,0008.25
2023-05-18 19:34:00,,0830.2,5.00,0.00,29.4,27.9,00.0,37.8,31.0,33.9,0000.2,0009.29,0013.68,0008.35
2023-05-18 19:35:00,,0830.2,4.98,0.00,29.4,27.9,00.0,37.8,31.0,32.9,0000.3,0009.35,0013.78,0008.43
2023-05-18 19:36:00,,0830.2,5.00,0.00,29.4,27.9,00.0,37.8,31.0,33.0,0000.4,0009.39,0014.43,0008.51
2023-05-18 19:37:00,,0830.2,5.00,0.00,29.4,27.9,00.0,37.8,31.0,32.4,0000.3,0009.47,0014.43,0008.58
2023-05-18 19:38:00,,0830.2,5.00,0.00,29.4,27.9,00.0,37.8,31.0,32.5,0000.1,0009.51,0014.43,0008.65
2023-05-18 19:39:00,,0830.3,4.99,0.00,29.4,27.9,00.0,37.8,31.0,32.0,-000.5,0009.59,0014.48,0008.74
2023-05-18 19:40:00,,0830.2,5.00,0.00,29.4,27.9,00.0,37.8,31.0,32.7,-000.4,0009.68,0014.63,0008.84
2023-05-18 19:41:00,,0830.2,5.00,0.00,29.4,27.9,00.0,37.8,31.0,33.2,-000.4,0009.73,0014.60,0008.91
2023-05-18 19:42:00,,0830.2,5.00,0.00,29.4,27.9,00.0,37.8,31.0,33.1,0000.2,0009.79,0014.67,0008.99
2023-05-18 19:43:00,,0830.1,5.00,0.00,29.4,27.9,00.0,37.8,31.0,33.0,0000.3,0009.84,0014.85,0009.05
2023-05-18 19:44:00,,0830.1,5.00,0.00,29.4,27.9,00.0,37.8,31.0,33.1,-000.2,0009.92,0014.50,0009.09
2023-05-18 19:45:00,,0830.0,5.00,0.00,29.4,27.9,00.0,37.8,31.0,33.3,-000.6,0009.97,0014.60,0009.12
2023-05-18 19:46:00,,0830.1,4.99,0.00,29.5,27.9,00.0,37.8,31.0,34.6,-000.4,0010.05,0014.79,0009.14
2023-05-18 19:47:00,,0830.1,5.01,0.00,29.5,27.9,00.0,37.8,31.1,32.3,-000.2,0010.03,0014.11,0009.10
2023-05-18 19:48:00,,0830.0,4.99,0.00,29.6,28.0,00.0,37.9,31.1,31.1,0000.1,0009.94,0014.09,0009.05
2023-05-18 19:49:00,,0830.0,5.01,0.00,29.6,28.0,00.0,37.9,31.1,31.3,0000.7,0009.90,0014.52,0008.97
2023-05-18 19:50:00,,0830.0,5.01,0.00,29.7,28.0,00.0,37.9,31.1,31.1,0001.5,0009.82,0014.48,0008.88
2023-05-18 19:51:00,,0830.0,4.99,0.00,29.7,28.0,00.0,37.9,31.1,31.0,0001.8,0009.73,0014.88,0008.77
2023-05-18 19:52:00,,0830.0,5.00,0.00,29.7,27.9,00.0,37.9,31.1,30.6,0002.0,0009.59,0014.89,0008.63
2023-05-18 19:53:00,,0830.0,5.01,0.00,29.7,27.9,00.0,37.9,31.1,30.7,0002.5,0009.43,0015.25,0008.45
2023-05-18 19:54:00,,0830.1,4.98,0.00,29.7,27.9,00.0,38.0,31.1,31.0,0002.9,0009.24,0014.94,0008.26
2023-05-18 19:55:00,,0830.1,5.01,0.00,29.7,27.9,00.0,38.0,31.1,30.6,0003.1,0008.98,0014.51,0008.05
2023-05-18 19:56:00,,0830.1,4.99,0.00,29.7,27.9,00.0,38.0,31.1,30.3,0003.1,0008.78,0014.20,0007.89
2023-05-18 19:57:00,,0830.1,5.00,0.00,29.7,28.0,00.0,38.0,31.1,30.8,0003.1,0008.58,0013.89,0007.72
2023-05-18 19:58:00,,0830.1,5.00,0.00,29.7,28.0,00.0,38.0,31.1,31.0,0003.3,0008.46,0013.73,0007.60
2023-05-18 19:59:00,,0830.1,5.00,0.00,29.7,28.0,00.0,38.0,31.1,29.8,0003.4,0008.38,0013.56,0007.51
